Zurück zum Katalog

HERMES-5

AktivKommunikationSSO
NORAD 63834·PAYLOAD·🇮🇹 Italy

Gestartet Mar 15, 2025 von Vandenberg Space Force Base

Loading…

Nächste Überflüge (nächste 24 Stunden)

TLE

AktuellSource: Space-Track

Epoche: Sep 14, 2026, 03:58 UTC

1 63834U 25052BQ  26257.16583947  .00005061  00000-0  17641-3 0  9997
2 63834  97.3836 151.0628 0003926 164.3037 195.8326 15.30088095 83553

Verfolge HERMES-5 in Echtzeit mit AllMySat

Download on the App Store